This is the latest recevied weather packets stored in our database for station/object CT8ACA-6. If no packets are shown the sender has not sent any weather packets the latest 10 day(s).
| Time | Temp. | Humidity | Pressure | Rain* | Wind** | Luminosity | Snow |
|---|---|---|---|---|---|---|---|
| 1787733414 | 20.56° C | 77% | 1014.9 hPa | 0 mm | - | - | - |
| 1787732814 | 20° C | 76% | 1014.5 hPa | 0 mm | - | - | - |
| 1787732213 | 20° C | 76% | 1014.5 hPa | 0 mm | - | - | - |
| 1787731613 | 19.44° C | 76% | 1014 hPa | 0 mm | - | - | - |
| 1787731014 | 19.44° C | 76% | 1014 hPa | 0 mm | - | - | - |
| 1787730413 | 19.44° C | 76% | 1013.5 hPa | 0 mm | - | - | - |
| 1787729813 | 19.44° C | 76% | 1013.5 hPa | 0 mm | - | - | - |
| 1787729213 | 18.89° C | 75% | 1013.2 hPa | 0 mm | - | - | - |
| 1787728612 | 18.89° C | 75% | 1013.2 hPa | 0 mm | - | - | - |
| 1787728013 | 18.89° C | 75% | 1012.7 hPa | 0 mm | - | - | - |
| 1787727413 | 18.33° C | 74% | 1012.7 hPa | 0 mm | - | - | - |
| 1787726812 | 18.33° C | 74% | 1012.7 hPa | 0 mm | - | - | - |
| 1787726212 | 18.33° C | 74% | 1012.7 hPa | 0 mm | - | - | - |
| 1787725612 | 18.33° C | 74% | 1012.7 hPa | 0 mm | - | - | - |
| 1787725012 | 18.33° C | 74% | 1012.7 hPa | 0 mm | - | - | - |
| 1787724412 | 18.33° C | 74% | 1013 hPa | 0 mm | - | - | - |
| 1787723812 | 17.78° C | 73% | 1013 hPa | 0 mm | - | - | - |
| 1787723211 | 17.78° C | 73% | 1013.2 hPa | 0 mm | - | - | - |
| 1787722612 | 18.33° C | 73% | 1013.2 hPa | 0 mm | - | - | - |
| 1787722012 | 18.33° C | 73% | 1013.7 hPa | 0 mm | - | - | - |
| 1787721411 | 18.33° C | 74% | 1013.7 hPa | 0 mm | - | - | - |
| 1787720811 | 18.33° C | 74% | 1014.2 hPa | 0 mm | - | - | - |
| 1787720212 | 18.33° C | 74% | 1014.2 hPa | 0 mm | - | - | - |
| 1787719611 | 18.33° C | 74% | 1014 hPa | 0 mm | - | - | - |
| 1787719011 | 18.33° C | 74% | 1014 hPa | 0 mm | - | - | - |
* Rain latest hour (hover to see other rain measurements)
** Current wind speed in m/s (hover to see current wind gust speed)